PAL1848 RPVM-RPLL

Flight info

Callsign PAL1848
Flight time 0h 52m
Altitude 36000
Route MULOP4P MULOP W11 CONDE CONDE3R
Aircraft A321/M-SDE3FGHIRWY/LB1

Departure

Time 2026-05-07 15:58
Airport Mactan Cebu International Airport (RPVM)

Arrival

Time 2026-05-07 16:50
Airport Ninoy Aquino International Airport (RPLL)
Time Latitude Longitude Altitude Speed Heading
2026-05-07 15:41 10.31548 123.97979 36 ft 0 kts 314°
2026-05-07 15:45 10.31545 123.97982 36 ft 2 kts 314°
2026-05-07 15:45 10.31534 123.97993 36 ft 2 kts 314°
2026-05-07 15:45 10.31524 123.98004 36 ft 1 kts 314°
2026-05-07 15:46 10.31511 123.98025 36 ft 2 kts 279°
2026-05-07 15:46 10.31511 123.98041 36 ft 2 kts 257°
2026-05-07 15:46 10.31517 123.98055 36 ft 2 kts 235°
2026-05-07 15:47 10.31521 123.98061 36 ft 1 kts 222°
2026-05-07 15:47 10.31525 123.98064 36 ft 0 kts 225°
2026-05-07 15:50 10.31497 123.98035 36 ft 4 kts 225°
2026-05-07 15:51 10.31332 123.97897 36 ft 6 kts 163°
2026-05-07 15:52 10.31278 123.97944 36 ft 8 kts 135°
2026-05-07 15:52 10.31233 123.97980 36 ft 6 kts 162°
2026-05-07 15:52 10.31187 123.97965 36 ft 8 kts 221°
2026-05-07 15:52 10.31144 123.97922 36 ft 9 kts 223°
2026-05-07 15:53 10.31095 123.97873 36 ft 10 kts 226°
2026-05-07 15:53 10.31041 123.97819 36 ft 11 kts 224°
2026-05-07 15:53 10.30985 123.97761 36 ft 12 kts 226°
2026-05-07 15:53 10.30925 123.97698 36 ft 12 kts 225°
2026-05-07 15:54 10.30860 123.97634 36 ft 13 kts 224°
2026-05-07 15:54 10.30792 123.97566 36 ft 14 kts 225°
2026-05-07 15:54 10.30720 123.97494 36 ft 14 kts 224°
2026-05-07 15:54 10.30647 123.97420 36 ft 15 kts 224°
2026-05-07 15:55 10.30571 123.97346 36 ft 15 kts 224°
2026-05-07 15:55 10.30493 123.97267 36 ft 15 kts 224°
2026-05-07 15:55 10.30423 123.97199 36 ft 11 kts 225°
2026-05-07 15:55 10.30377 123.97159 36 ft 6 kts 199°
2026-05-07 15:56 10.30331 123.97179 36 ft 8 kts 135°
2026-05-07 15:56 10.30289 123.97222 36 ft 8 kts 135°
2026-05-07 15:56 10.30242 123.97269 36 ft 9 kts 135°
2026-05-07 15:56 10.30193 123.97319 36 ft 9 kts 135°
2026-05-07 15:57 10.30171 123.97345 36 ft 3 kts 105°
2026-05-07 15:57 10.30182 123.97368 36 ft 4 kts 44°
2026-05-07 15:57 10.30228 123.97414 36 ft 28 kts 45°
2026-05-07 15:57 10.30561 123.97748 36 ft 103 kts 45°
2026-05-07 15:58 10.31218 123.98408 52 ft 160 kts 44°
2026-05-07 15:58 10.32019 123.99234 643 ft 165 kts 46°
2026-05-07 15:58 10.32818 124.00038 1418 ft 162 kts 47°
2026-05-07 15:58 10.33587 124.00808 2049 ft 156 kts 48°
2026-05-07 15:59 10.34400 124.01617 2330 ft 168 kts 44°
2026-05-07 15:59 10.35529 124.02087 2559 ft 192 kts
2026-05-07 15:59 10.36876 124.01708 2808 ft 217 kts 335°
2026-05-07 15:59 10.38176 124.00797 3087 ft 235 kts 327°
2026-05-07 16:00 10.39534 123.99720 3304 ft 256 kts 326°
2026-05-07 16:00 10.40982 123.98546 3640 ft 274 kts 325°
2026-05-07 16:00 10.42485 123.97324 4144 ft 284 kts 325°
2026-05-07 16:00 10.44030 123.96073 4854 ft 286 kts 325°
2026-05-07 16:01 10.45598 123.94806 5575 ft 289 kts 325°
2026-05-07 16:01 10.47170 123.93540 6270 ft 292 kts 325°
2026-05-07 16:01 10.48786 123.92242 6995 ft 296 kts 325°
2026-05-07 16:01 10.50402 123.90945 7713 ft 299 kts 325°
2026-05-07 16:02 10.52035 123.89634 8408 ft 302 kts 325°
2026-05-07 16:02 10.53678 123.88317 9085 ft 304 kts 325°
2026-05-07 16:02 10.55359 123.86970 9756 ft 307 kts 325°
2026-05-07 16:02 10.57037 123.85626 10422 ft 309 kts 325°
2026-05-07 16:03 10.58721 123.84276 11051 ft 312 kts 325°
2026-05-07 16:03 10.60475 123.82872 11391 ft 325 kts 325°
2026-05-07 16:03 10.62287 123.81422 11650 ft 340 kts 324°
2026-05-07 16:03 10.64172 123.79913 11900 ft 355 kts 324°
2026-05-07 16:04 10.66161 123.78320 12142 ft 369 kts 324°
2026-05-07 16:04 10.68210 123.76676 12368 ft 382 kts 324°
2026-05-07 16:04 10.70340 123.74965 12583 ft 395 kts 324°
2026-05-07 16:04 10.72538 123.73202 12787 ft 407 kts 324°
2026-05-07 16:05 10.74795 123.71389 12988 ft 418 kts 324°
2026-05-07 16:05 10.77088 123.69546 13332 ft 424 kts 324°
2026-05-07 16:05 10.79416 123.67673 13791 ft 427 kts 324°
2026-05-07 16:05 10.81760 123.65789 14238 ft 429 kts 324°
2026-05-07 16:06 10.84115 123.63896 14677 ft 431 kts 324°
2026-05-07 16:06 10.86482 123.61993 15111 ft 433 kts 324°
2026-05-07 16:06 10.88823 123.60110 15544 ft 434 kts 324°
2026-05-07 16:06 10.91204 123.58196 15949 ft 436 kts 324°
2026-05-07 16:07 10.93595 123.56274 16340 ft 438 kts 324°
2026-05-07 16:07 10.95986 123.54349 16711 ft 441 kts 324°
2026-05-07 16:07 10.98420 123.52391 17080 ft 443 kts 324°
2026-05-07 16:07 11.00874 123.50494 17444 ft 444 kts 327°
2026-05-07 16:08 11.03406 123.48699 17791 ft 446 kts 328°
2026-05-07 16:08 11.05993 123.46893 18112 ft 448 kts 328°
2026-05-07 16:08 11.08550 123.45112 18426 ft 451 kts 328°
2026-05-07 16:08 11.11165 123.43292 18749 ft 453 kts 328°
2026-05-07 16:09 11.13759 123.41485 19075 ft 455 kts 328°
2026-05-07 16:09 11.16390 123.39649 19394 ft 457 kts 328°
2026-05-07 16:09 11.19027 123.37807 19708 ft 459 kts 327°
2026-05-07 16:09 11.21675 123.35956 20007 ft 461 kts 327°
2026-05-07 16:10 11.24319 123.34108 20295 ft 463 kts 327°
2026-05-07 16:10 11.26983 123.32245 20566 ft 465 kts 327°
2026-05-07 16:10 11.29654 123.30376 20831 ft 467 kts 327°
2026-05-07 16:10 11.32339 123.28497 21080 ft 469 kts 327°
2026-05-07 16:11 11.35032 123.26613 21320 ft 471 kts 327°
2026-05-07 16:11 11.37761 123.24702 21565 ft 473 kts 327°
2026-05-07 16:11 11.40467 123.22807 21899 ft 472 kts 327°
2026-05-07 16:11 11.43126 123.20945 22683 ft 459 kts 327°
2026-05-07 16:12 11.45736 123.19117 23666 ft 443 kts 326°
2026-05-07 16:12 11.48204 123.17389 24643 ft 426 kts 326°
2026-05-07 16:12 11.50586 123.15720 25614 ft 410 kts 326°
2026-05-07 16:12 11.52887 123.14108 26573 ft 393 kts 325°
2026-05-07 16:13 11.55097 123.12562 27454 ft 379 kts 325°
2026-05-07 16:13 11.57251 123.11053 28034 ft 373 kts 324°
2026-05-07 16:13 11.59373 123.09562 28422 ft 372 kts 324°
2026-05-07 16:13 11.61524 123.08051 28779 ft 372 kts 324°
2026-05-07 16:14 11.63655 123.06554 29083 ft 374 kts 324°
2026-05-07 16:14 11.65798 123.05048 29338 ft 376 kts 324°
2026-05-07 16:14 11.67974 123.03520 29649 ft 377 kts 324°
2026-05-07 16:14 11.70120 123.02013 29986 ft 377 kts 324°
2026-05-07 16:15 11.72296 123.00486 30287 ft 378 kts 323°
2026-05-07 16:15 11.74469 122.98959 30496 ft 382 kts 323°
2026-05-07 16:15 11.76677 122.97408 30762 ft 384 kts 323°
2026-05-07 16:15 11.78880 122.95859 31031 ft 385 kts 323°
2026-05-07 16:16 11.81092 122.94304 31264 ft 388 kts 323°
2026-05-07 16:16 11.83310 122.92745 31555 ft 388 kts 323°
2026-05-07 16:16 11.85559 122.91166 31889 ft 388 kts 323°
2026-05-07 16:16 11.87779 122.89604 32129 ft 390 kts 323°
2026-05-07 16:17 11.90037 122.88016 32253 ft 395 kts 323°
2026-05-07 16:17 11.92315 122.86411 32379 ft 400 kts 323°
2026-05-07 16:17 11.94624 122.84786 32506 ft 406 kts 323°
2026-05-07 16:17 11.96961 122.83141 32642 ft 410 kts 323°
2026-05-07 16:18 11.99331 122.81471 32775 ft 415 kts 323°
2026-05-07 16:18 12.01697 122.79804 32910 ft 420 kts 323°
2026-05-07 16:18 12.04123 122.78095 33044 ft 425 kts 323°
2026-05-07 16:18 12.06570 122.76371 33177 ft 430 kts 323°
2026-05-07 16:19 12.09071 122.74608 33309 ft 435 kts 323°
2026-05-07 16:19 12.11582 122.72839 33438 ft 439 kts 323°
2026-05-07 16:19 12.14086 122.71075 33559 ft 444 kts 323°
2026-05-07 16:19 12.16652 122.69263 33681 ft 448 kts 323°
2026-05-07 16:20 12.19237 122.67440 33801 ft 452 kts 323°
2026-05-07 16:20 12.21841 122.65602 33920 ft 457 kts 323°
2026-05-07 16:20 12.24477 122.63742 34052 ft 460 kts 323°
2026-05-07 16:20 12.27090 122.61899 34230 ft 463 kts 323°
2026-05-07 16:21 12.29752 122.60018 34479 ft 463 kts 323°
2026-05-07 16:21 12.32420 122.58134 34807 ft 462 kts 323°
2026-05-07 16:21 12.35053 122.56273 35082 ft 462 kts 323°
2026-05-07 16:21 12.37694 122.54408 35294 ft 463 kts 323°
2026-05-07 16:22 12.40374 122.52517 35480 ft 464 kts 323°
2026-05-07 16:22 12.43014 122.50654 35657 ft 465 kts 323°
2026-05-07 16:22 12.45698 122.48759 35836 ft 466 kts 323°
2026-05-07 16:23 12.51080 122.44952 35863 ft 472 kts 323°
2026-05-07 16:23 12.56469 122.41139 35865 ft 473 kts 323°
2026-05-07 16:24 12.61896 122.37298 35863 ft 473 kts 323°
2026-05-07 16:24 12.67301 122.33470 35860 ft 473 kts 323°
2026-05-07 16:25 12.72715 122.29634 35860 ft 473 kts 323°
2026-05-07 16:25 12.78141 122.25786 35861 ft 473 kts 323°
2026-05-07 16:26 12.83564 122.21938 35862 ft 473 kts 323°
2026-05-07 16:26 12.88976 122.18095 35861 ft 473 kts 323°
2026-05-07 16:27 12.94382 122.14256 35863 ft 473 kts 322°
2026-05-07 16:27 12.99796 122.10407 35864 ft 473 kts 322°
2026-05-07 16:28 13.05221 122.06548 35873 ft 473 kts 322°
2026-05-07 16:28 13.10606 122.02717 35886 ft 472 kts 323°
2026-05-07 16:29 13.16023 121.98860 35903 ft 472 kts 323°
2026-05-07 16:29 13.21380 121.95046 35514 ft 465 kts 322°
2026-05-07 16:29 13.24049 121.93143 35226 ft 462 kts 323°
2026-05-07 16:30 13.26660 121.91281 34804 ft 460 kts 323°
2026-05-07 16:30 13.29288 121.89407 34204 ft 458 kts 323°
2026-05-07 16:30 13.31921 121.87528 33480 ft 459 kts 323°
2026-05-07 16:30 13.34527 121.85667 32721 ft 459 kts 323°
2026-05-07 16:31 13.37168 121.83781 31984 ft 460 kts 323°
2026-05-07 16:31 13.39789 121.81908 31230 ft 462 kts 324°
2026-05-07 16:31 13.42439 121.80014 30446 ft 464 kts 324°
2026-05-07 16:31 13.45080 121.78126 29646 ft 466 kts 324°
2026-05-07 16:32 13.47745 121.76221 28821 ft 468 kts 324°
2026-05-07 16:32 13.50418 121.74310 27959 ft 470 kts 325°
2026-05-07 16:32 13.53088 121.72403 27063 ft 472 kts 325°
2026-05-07 16:32 13.55810 121.70458 26074 ft 476 kts 325°
2026-05-07 16:33 13.58533 121.68510 25042 ft 480 kts 325°
2026-05-07 16:33 13.61268 121.66553 23969 ft 484 kts 326°
2026-05-07 16:33 13.64037 121.64571 23009 ft 485 kts 326°
2026-05-07 16:33 13.66767 121.62599 22316 ft 480 kts 325°
2026-05-07 16:34 13.69406 121.60509 21614 ft 476 kts 322°
2026-05-07 16:34 13.71893 121.58322 20933 ft 472 kts 320°
2026-05-07 16:34 13.74347 121.56088 20244 ft 468 kts 319°
2026-05-07 16:34 13.76759 121.53875 19572 ft 464 kts 319°
2026-05-07 16:35 13.79173 121.51657 18888 ft 460 kts 319°
2026-05-07 16:35 13.81552 121.49474 18218 ft 457 kts 319°
2026-05-07 16:35 13.83895 121.47324 17551 ft 453 kts 319°
2026-05-07 16:35 13.86229 121.45184 16898 ft 449 kts 319°
2026-05-07 16:36 13.88565 121.43046 16220 ft 447 kts 320°
2026-05-07 16:36 13.90887 121.40923 15523 ft 444 kts 320°
2026-05-07 16:36 13.93165 121.38837 14836 ft 442 kts 319°
2026-05-07 16:36 13.95446 121.36747 14140 ft 439 kts 319°
2026-05-07 16:37 13.97734 121.34647 13404 ft 438 kts 319°
2026-05-07 16:37 13.99998 121.32569 12689 ft 435 kts 319°
2026-05-07 16:37 14.02247 121.30501 12200 ft 426 kts 319°
2026-05-07 16:37 14.04222 121.28298 11750 ft 419 kts 308°
2026-05-07 16:38 14.05693 121.25725 11362 ft 410 kts 295°
2026-05-07 16:38 14.06736 121.23077 11108 ft 398 kts 291°
2026-05-07 16:38 14.07700 121.20439 10803 ft 385 kts 291°
2026-05-07 16:38 14.08597 121.17957 10596 ft 357 kts 291°
2026-05-07 16:39 14.09441 121.15640 10404 ft 332 kts 292°
2026-05-07 16:39 14.10230 121.13496 10242 ft 312 kts 292°
2026-05-07 16:39 14.10996 121.11430 10091 ft 303 kts 292°
2026-05-07 16:39 14.11747 121.09414 9893 ft 299 kts 292°
2026-05-07 16:40 14.12492 121.07419 9527 ft 301 kts 292°
2026-05-07 16:40 14.13251 121.05389 9168 ft 302 kts 292°
2026-05-07 16:40 14.14003 121.03372 8810 ft 303 kts 292°
2026-05-07 16:40 14.14755 121.01359 8453 ft 303 kts 292°
2026-05-07 16:41 14.15513 120.99326 8087 ft 304 kts 292°
2026-05-07 16:41 14.16265 120.97310 7727 ft 304 kts 292°
2026-05-07 16:41 14.17102 120.95321 7343 ft 302 kts 304°
2026-05-07 16:41 14.18551 120.93771 6963 ft 295 kts 329°
2026-05-07 16:42 14.20309 120.92715 6614 ft 293 kts 334°
2026-05-07 16:42 14.22096 120.91705 6253 ft 292 kts 334°
2026-05-07 16:42 14.23886 120.90682 5888 ft 292 kts 334°
2026-05-07 16:42 14.25651 120.89658 5548 ft 291 kts 333°
2026-05-07 16:43 14.27399 120.88630 5174 ft 284 kts 333°
2026-05-07 16:43 14.29105 120.87627 4813 ft 271 kts 333°
2026-05-07 16:43 14.30692 120.86696 4479 ft 260 kts 334°
2026-05-07 16:43 14.32252 120.85783 4150 ft 250 kts 334°
2026-05-07 16:44 14.33734 120.84915 3887 ft 238 kts 334°
2026-05-07 16:44 14.35127 120.84097 3810 ft 219 kts 334°
2026-05-07 16:44 14.36395 120.83351 3808 ft 202 kts 334°
2026-05-07 16:44 14.37602 120.82653 3684 ft 198 kts 337°
2026-05-07 16:45 14.38900 120.82349 3530 ft 188 kts
2026-05-07 16:45 14.40079 120.82831 3399 ft 181 kts 40°
2026-05-07 16:45 14.40855 120.83836 3209 ft 178 kts 61°
2026-05-07 16:45 14.41462 120.84949 2985 ft 178 kts 62°
2026-05-07 16:46 14.42070 120.86073 2760 ft 178 kts 62°
2026-05-07 16:46 14.42674 120.87183 2541 ft 178 kts 62°
2026-05-07 16:46 14.43277 120.88282 2316 ft 173 kts 61°
2026-05-07 16:46 14.43850 120.89317 2081 ft 161 kts 61°
2026-05-07 16:47 14.44384 120.90279 1916 ft 147 kts 61°
2026-05-07 16:47 14.44880 120.91177 1762 ft 142 kts 61°
2026-05-07 16:47 14.45370 120.92062 1672 ft 141 kts 61°
2026-05-07 16:47 14.45864 120.92947 1548 ft 141 kts 62°
2026-05-07 16:48 14.46348 120.93817 1419 ft 141 kts 62°
2026-05-07 16:48 14.46836 120.94692 1254 ft 140 kts 62°
2026-05-07 16:48 14.47321 120.95567 1073 ft 140 kts 62°
2026-05-07 16:48 14.47808 120.96435 888 ft 139 kts 62°
2026-05-07 16:49 14.48292 120.97306 713 ft 139 kts 63°
2026-05-07 16:49 14.48769 120.98171 553 ft 138 kts 63°
2026-05-07 16:49 14.49247 120.99043 374 ft 139 kts 63°
2026-05-07 16:49 14.49726 120.99902 183 ft 138 kts 62°
2026-05-07 16:50 14.50199 121.00760 89 ft 129 kts 62°
2026-05-07 16:50 14.50543 121.01382 82 ft 57 kts 60°
2026-05-07 16:50 14.50663 121.01595 82 ft 28 kts 60°
2026-05-07 16:50 14.50753 121.01707 82 ft 16 kts 40°
2026-05-07 16:51 14.50815 121.01757 82 ft 7 kts 38°
2026-05-07 16:51 14.50863 121.01791 82 ft 7 kts 17°
2026-05-07 16:51 14.50901 121.01771 82 ft 7 kts 297°
2026-05-07 16:51 14.50895 121.01726 82 ft 4 kts 243°
2026-05-07 16:52 14.50879 121.01696 82 ft 2 kts 246°
2026-05-07 16:52 14.50885 121.01677 82 ft 3 kts 303°
2026-05-07 16:52 14.50906 121.01653 82 ft 5 kts 312°
2026-05-07 16:52 14.50935 121.01622 82 ft 6 kts 315°
2026-05-07 16:53 14.50970 121.01586 82 ft 7 kts 316°
2026-05-07 16:53 14.51012 121.01545 82 ft 8 kts 315°
2026-05-07 16:53 14.51055 121.01498 82 ft 4 kts 314°
2026-05-07 16:53 14.51080 121.01472 82 ft 3 kts 309°
2026-05-07 16:54 14.51084 121.01450 82 ft 3 kts 252°
2026-05-07 16:54 14.51067 121.01425 82 ft 4 kts 231°
2026-05-07 16:54 14.51055 121.01409 82 ft 1 kts 232°
2026-05-07 16:54 14.51053 121.01406 82 ft 0 kts 232°